Orlando, FL

10:21 PM EDT on April 23, 2017 (GMT -0400)
Executive

Weather History for KORL - March, 2012

Change the Weather History Date:

Sunday, March 4, 2012

  Actual Average Record
Temperature  
Mean Temperature 64 °F -  
Max Temperature 75 °F 74 °F 86 °F (1997)
Min Temperature 54 °F 54 °F 37 °F (2013)
Growing Degree Days 14 (Base 50)    
Moisture  
Dew Point 47 °F    
Average Humidity 60    
Maximum Humidity 94    
Minimum Humidity 19    
Precipitation  
Precipitation 0.24 in - - ()
Sea Level Pressure  
Sea Level Pressure 29.95 in    
Wind  
Wind Speed 17 mph (WNW)    
Max Wind Speed 26 mph    
Max Gust Speed 37 mph    
Visibility 9 miles    
Events Rain    
Averages and records for this station are not official NWS values.
T = Trace of Precipitation, MM = Missing Value Source: NWS Daily Summary

Daily Weather History Graph

Daily Weather History Graph

Search for Another Location

Airport or City:

Trip Planner

Search our weather history database for the weather conditions in past years. The results will help you decide how hot, cold, wet, or windy it might be!

Date:

Astronomy

Mar. 04, 2012 Rise Set
Actual Time 6:46 AM EST 6:27 PM EST
Civil Twilight 6:23 AM EST 6:51 PM EST
Nautical Twilight 5:55 AM EST 7:18 PM EST
Astronomical Twilight 5:28 AM EST 7:45 PM EST
Moon 2:53 PM EST (3/4) 3:49 AM EST (3/4)
Length of Visible Light 12h 28m
Length of Day
11h 40m
Waxing Gibbous, 83% of the Moon is Illuminated
Mar 4
Waxing Gibbous
Mar 8
Full
Mar 14
Last Quarter
Mar 22
New
Mar 30
First Quarter

Hourly Weather History & Observations

Time (EST) Temp. Dew Point Humidity Pressure Visibility Wind Dir Wind Speed Gust Speed Precip Events Conditions
12:53 AM 73.9 °F 66.0 °F 76% 29.80 in 10.0 mi SSW 16.1 mph 24.2 mph N/A   Clear
1:53 AM 73.0 °F 66.9 °F 81% 29.77 in 10.0 mi SSW 17.3 mph 21.9 mph N/A   Clear
2:44 AM 73.4 °F 68.0 °F 83% 29.73 in 10.0 mi SSW 19.6 mph 24.2 mph N/A   Mostly Cloudy
2:53 AM 73.9 °F 69.1 °F 85% 29.73 in 10.0 mi SSW 18.4 mph 28.8 mph N/A   Mostly Cloudy
3:53 AM 73.0 °F 69.1 °F 87% 29.70 in 10.0 mi SSW 19.6 mph 27.6 mph N/A   Scattered Clouds
4:41 AM 75.2 °F 69.8 °F 83% 29.69 in 10.0 mi SSW 20.7 mph 31.1 mph N/A   Mostly Cloudy
4:53 AM 75.0 °F 69.1 °F 82% 29.70 in 10.0 mi SSW 21.9 mph 29.9 mph N/A   Mostly Cloudy
5:53 AM 75.0 °F 69.1 °F 82% 29.71 in 10.0 mi SSW 18.4 mph 32.2 mph N/A   Overcast
6:19 AM 73.4 °F 69.8 °F 88% 29.76 in 2.5 mi West 26.5 mph 36.8 mph 0.00 in Rain Light Rain
6:27 AM 68.0 °F 64.4 °F 88% 29.75 in 1.2 mi WSW 18.4 mph 36.8 mph 0.01 in Rain Heavy Rain
6:31 AM 68.0 °F 66.2 °F 94% 29.75 in 3.0 mi West 12.7 mph 26.5 mph 0.01 in Rain Light Rain
6:53 AM 66.0 °F 63.0 °F 90% 29.80 in 7.0 mi NW 25.3 mph 36.8 mph 0.03 in Rain Light Rain
7:00 AM 62.6 °F 59.0 °F 88% 29.80 in 10.0 mi NW 25.3 mph 35.7 mph 0.01 in Rain Light Rain
7:53 AM 55.0 °F 52.0 °F 89% 29.91 in 10.0 mi NW 18.4 mph 27.6 mph 0.15 in   Overcast
8:23 AM 55.4 °F 50.0 °F 82% 29.94 in 10.0 mi NW 15.0 mph 27.6 mph 0.05 in   Overcast
8:53 AM 54.0 °F 48.9 °F 83% 30.00 in 10.0 mi NW 16.1 mph 26.5 mph 0.05 in   Overcast
9:00 AM 55.4 °F 48.2 °F 77% 29.98 in 10.0 mi NW 17.3 mph 26.5 mph N/A   Overcast
9:08 AM 55.4 °F 46.4 °F 72% 30.00 in 10.0 mi NW 18.4 mph - N/A   Overcast
9:53 AM 57.9 °F 41.0 °F 53% 30.04 in 10.0 mi NW 11.5 mph 25.3 mph 0.01 in   Mostly Cloudy
10:53 AM 61.0 °F 34.0 °F 36% 30.06 in 10.0 mi NW 25.3 mph 33.4 mph N/A   Partly Cloudy
11:53 AM 63.0 °F 35.1 °F 35% 30.07 in 10.0 mi NNW 12.7 mph 24.2 mph N/A   Overcast
12:53 PM 64.0 °F 30.9 °F 29% 30.06 in 10.0 mi NW 20.7 mph 29.9 mph N/A   Clear
1:53 PM 66.0 °F 26.1 °F 22% 30.04 in 10.0 mi WNW 21.9 mph 33.4 mph N/A   Clear
2:53 PM 66.9 °F 25.0 °F 21% 30.03 in 10.0 mi NW 16.1 mph 24.2 mph N/A   Clear
3:53 PM 66.9 °F 24.1 °F 20% 30.03 in 10.0 mi West 15.0 mph 24.2 mph N/A   Clear
4:53 PM 66.9 °F 23.0 °F 19% 30.06 in 10.0 mi WNW 17.3 mph - N/A   Clear
5:53 PM 64.0 °F 23.0 °F 21% 30.10 in 10.0 mi NW 9.2 mph - N/A   Clear
6:53 PM 62.1 °F 23.0 °F 22% 30.14 in 10.0 mi NNW 8.1 mph - N/A   Clear
7:53 PM 61.0 °F 24.1 °F 24% 30.17 in 10.0 mi NW 4.6 mph - N/A   Clear
8:53 PM 57.0 °F 34.0 °F 42% 30.21 in 10.0 mi WNW 5.8 mph - N/A   Clear
9:53 PM 55.9 °F 34.0 °F 44% 30.24 in 10.0 mi NW 5.8 mph - N/A   Clear
10:53 PM 55.0 °F 34.0 °F 45% 30.25 in 10.0 mi NNW 6.9 mph - N/A   Clear
11:53 PM 54.0 °F 33.1 °F 45% 30.25 in 10.0 mi NW 4.6 mph - N/A   Clear